Location: Newark
(52.1031°N, 9.3600°E)
Time: 10:15:20
(UTC+00:00)

Envisat - Pass Details

Date: 27 October 2019
Orbit: 764 x 766 km, 98.1° (Epoch: 12 November)

Event Time Altitude Azimuth Distance (km) Brightness Sun altitude
Rises 18:10:58 0° 194° (SSW) 3,222 6.3 -20.0°
Reaches altitude 10° 18:13:31 10° 204° (SSW) 2,300 5.7 -20.4°
Maximum altitude 18:17:58 31° 266° (W) 1,335 4.9 -21.1°
Drops below altitude 10° 18:22:28 10° 328° (NNW) 2,315 6.0 -21.8°
Sets 18:25:03 0° 339° (NNW) 3,246 6.6 -22.2°
